Location: Nashville
(36.1660°N, 86.7840°W)
Time: 07:15:47
(UTC-05:00)

EO-88 - Pass Details

Date: 20 May 2022
Orbit: 457 x 464 km, 97.3° (Epoch: 27 June)

Event Time Altitude Azimuth Distance (km) Brightness Sun altitude
Rises 12:49:18 0° 316° (NW) 2,512 ? 73.9°
Enters shadow 13:25:11 -63° 189° (S) 11,894 ? 71.5°
Exits shadow 13:59:48 -42° 39° (NE) 9,250 ? 66.9°
Drops below altitude 10° 21:51:56 10° 12° (NNE) 1,619 ? -20.6°
Sets 21:54:09 0° 1° (N) 2,501 ? -20.9°
